This is the latest recevied weather packets stored in our database for station/object Dunnningn. If no packets are shown the sender has not sent any weather packets the latest 10 day(s).
| Time | Temp. | Humidity | Pressure | Rain* | Wind** | Luminosity | Snow |
|---|---|---|---|---|---|---|---|
| 1788285731 | 20° C | 56% | 1021.2 hPa | 0 mm | - | - | - |
| 1788283931 | 20.56° C | 53% | 1021.1 hPa | 0 mm | - | - | - |
| 1788282131 | 21.11° C | 51% | 1021.1 hPa | 0 mm | - | - | - |
| 1788280331 | 22.78° C | 47% | 1021.2 hPa | 0 mm | - | - | - |
| 1788278530 | 22.78° C | 47% | 1021.2 hPa | 0 mm | - | - | - |
| 1788276731 | 22.22° C | 49% | 1021.2 hPa | 0 mm | - | - | - |
| 1788274930 | 23.33° C | 45% | 1021.2 hPa | 0 mm | - | - | - |
| 1788273131 | 22.22° C | 47% | 1021.2 hPa | 0 mm | - | - | - |
| 1788271330 | 22.78° C | 44% | 1021.3 hPa | 0 mm | - | - | - |
| 1788269530 | 22.78° C | 44% | 1021.5 hPa | 0 mm | - | - | - |
| 1788267730 | 23.89° C | 43% | 1021.7 hPa | 0 mm | - | - | - |
| 1788265930 | 23.33° C | 47% | 1021.8 hPa | 0 mm | - | - | - |
| 1788264131 | 22.78° C | 48% | 1022 hPa | 0 mm | - | - | - |
| 1788262331 | 22.22° C | 47% | 1022 hPa | 0 mm | - | - | - |
| 1788260531 | 22.78° C | 49% | 1022.1 hPa | 0 mm | - | - | - |
| 1788258730 | 22.22° C | 53% | 1022.3 hPa | 0 mm | - | - | - |
| 1788256930 | 21.67° C | 54% | 1022.5 hPa | 0 mm | - | - | - |
| 1788255130 | 21.67° C | 52% | 1022.3 hPa | 0 mm | - | - | - |
| 1788253330 | 20.56° C | 57% | 1022.3 hPa | 0 mm | - | - | - |
| 1788251530 | 18.89° C | 65% | 1022 hPa | 0 mm | - | - | - |
| 1788249730 | 17.78° C | 76% | 1022 hPa | 0 mm | - | - | - |
| 1788247930 | 16.11° C | 81% | 1021.8 hPa | 0 mm | - | - | - |
| 1788246130 | 13.33° C | 86% | 1021.9 hPa | 0 mm | - | - | - |
| 1788244330 | 12.78° C | 86% | 1021.8 hPa | 0 mm | - | - | - |
| 1788242531 | 12.78° C | 85% | 1021.6 hPa | 0 mm | - | - | - |
* Rain since midnight (hover to see other rain measurements)
** Current wind speed in m/s (hover to see current wind gust speed)